Flag for U.S.A. Weather past 2 weeks in Germantown, Maryland, U.S.A.

Now
73 °F

Clear.


Feels Like: 68 °F
Forecast: 71 / 91 °F
Wind: No wind

Location: Frederick Municipal Airport

Current Time: Jul 23, 2014 at 2:05:34 AM

Latest Report: Jul 23, 2014 at 1:15 AM


Visibility: 10 mi

Pressure: 30.08 "Hg

Humidity: 100%

Dew point: 73 °F

Location of GermantownLocation

Historic Weather in Germantown — Graph

°F

Germantown temperature yesterday

Maximum temperature yesterday: 82 °F (at 12:50 PM)
Minimum temperature yesterday: 66 °F (at 2:30 AM)
Average temperature yesterday: 72 °F

Past Weeks' High & Low Weather Summary

 TemperatureHumidityPressure
High93 °F (Jul 8, 2:45 PM)100% (Jul 8, 4:50 AM)30.28 "Hg (Jul 8, 4:50 AM)
Low55 °F (Jul 18, 4:00 AM)39% (Jul 17, 5:50 PM)29.76 "Hg (Jul 8, 3:45 PM)
Average72 °F90%30.07 "Hg
* Reported Jul 8 12:10 AM — Jul 23 12:55 AM, Germantown, Weather by CustomWeather, © 2014

Note: Actual official high and low records may vary slightly from our data, if they occured in-between our weather recording intervals... More about our weather records

Advertising

Germantown weather history for previous 24 hours

 ConditionsComfort  
Time TempWeatherWind HumidityBarometerVisibility
12:55 AM
Jul 23
73 °FClear.3 mph100%30.09 "Hg10 mi
12:35 AM72 °FClear.No wind100%30.09 "Hg10 mi
12:15 AM73 °FClear.No wind100%30.09 "Hg10 mi
11:55 PM
Jul 22
73 °FClear.3 mph100%30.09 "Hg10 mi
11:35 PM73 °FPassing clouds.3 mph100%30.09 "Hg10 mi
11:15 PM75 °FOvercast.3 mph94%30.10 "Hg10 mi
10:55 PM75 °FOvercast.3 mph94%30.11 "Hg10 mi
10:35 PM77 °FPassing clouds.No wind89%30.11 "Hg10 mi
10:15 PM77 °FPassing clouds.No wind83%30.11 "Hg10 mi
9:50 PM77 °FPassing clouds.3 mph89%30.11 "Hg10 mi
9:30 PM77 °FSunny.5 mph89%30.11 "Hg10 mi
9:10 PM79 °FSunny.5 mph79%30.10 "Hg10 mi
8:50 PM79 °FSunny.3 mph79%30.10 "Hg10 mi
7:45 PM82 °FSunny.3 mph74%30.10 "Hg10 mi
12:50 PM82 °FBroken clouds.7 mph79%30.19 "Hg10 mi
11:48 AM73 °FMore clouds than sun.3 mph100%30.20 "Hg10 mi
10:47 AM79 °FOvercast.5 mph84%30.21 "Hg10 mi
9:50 AM79 °FMostly cloudy.3 mph84%30.22 "Hg10 mi
8:50 AM73 °FOvercast.No wind100%30.22 "Hg10 mi
7:55 AM73 °FMore clouds than sun.No wind100%30.22 "Hg10 mi
6:45 AM72 °FLow clouds.No wind100%30.20 "Hg10 mi
6:30 AM70 °FLow clouds.No wind100%30.20 "Hg7 mi
6:10 AM70 °FLow clouds.No wind100%30.20 "Hg10 mi
5:50 AM70 °FLow clouds.No wind100%30.20 "Hg10 mi
5:30 AM70 °FOvercast.No wind100%30.19 "Hg7 mi
5:10 AM70 °FLow clouds.No wind100%30.19 "Hg10 mi
4:50 AM70 °FOvercast.No wind100%30.19 "Hg10 mi
4:30 AM70 °FOvercast.No wind100%30.18 "Hg10 mi
4:10 AM70 °FOvercast.No wind100%30.18 "Hg10 mi
3:50 AM68 °FOvercast.No wind100%30.18 "Hg10 mi
3:30 AM68 °FOvercast.No wind100%30.18 "Hg10 mi
3:10 AM68 °FOvercast.No wind100%30.18 "Hg10 mi
2:50 AM68 °FPassing clouds.No wind100%30.19 "Hg7 mi
2:30 AM66 °FClear.No wind100%30.19 "Hg10 mi
2:10 AM68 °FClear.No wind100%30.19 "Hg7 mi
Weather by CustomWeather, © 2014

See weather overviewHow to use our weather pages